1486724400.59,7968,10.69,73858.5,-4.21,-7.77,-7.49,0,*6A
1486724401.84,7969,10.69,73852.5,-4.21,-7.91,-7.69,0,*61
1486724403.03,7970,10.69,73854.0,-4.21,-8.29,-8.17,0,*63
1486724404.28,7971,10.69,73858.3,-4.19,-7.77,-7.49,0,*69
1486724405.53,7972,10.69,73852.0,-4.17,-7.27,-7.01,0,*6D
1486724406.78,7973,10.69,73858.0,-4.17,-7.61,-7.27,0,*6A
1486724408.03,7974,10.69,73858.3,-4.17,-7.61,-7.31,0,*6A
1486724409.27,7975,10.69,73858.5,-4.15,-7.15,-6.81,0,*60
1486724410.47,7976,10.69,73854.5,-4.13,-7.15,-6.77,0,*6C
1486724411.73,7977,10.69,73850.0,-4.11,-7.39,-7.01,0,*61
1486724412.95,7978,10.69,73846.3,-4.11,-7.49,-7.11,0,*68
1486724414.15,7979,10.69,73844.8,-4.09,-7.53,-7.11,0,*6B
1486724415.39,7980,10.69,73846.3,-4.03,-7.43,-7.05,0,*63
1486724416.59,7981,10.69,73850.0,-4.03,-7.19,-6.77,0,*69
1486724417.81,7982,10.69,73848.0,-4.03,-7.83,-7.31,0,*6A
1486724419.06,7983,10.69,73852.3,-4.01,-8.29,-7.99,0,*64
1486724420.28,7984,10.69,73858.3,-3.99,-8.25,-7.95,0,*65
1486724421.47,7985,10.69,73854.5,-3.99,-8.63,-8.33,0,*65
1486724422.7,7986,10.69,73858.0,-3.99,-8.75,-8.51,0,*65
1486724423.9,7987,10.69,73860.5,-3.99,-9.01,-8.85,0,*6F
1486724425.11,7988,10.69,73862.5,-3.99,-9.05,-8.89,0,*68
1486724426.31,7989,10.69,73860.5,-3.99,-8.75,-8.71,0,*68
1486724427.5,7990,10.69,73866.8,-3.99,-8.75,-8.75,0,*64
1486724428.69,7991,10.69,73864.0,-3.99,-8.33,-8.45,0,*64
1486724429.91,7992,10.69,73858.5,-3.97,-8.17,-8.33,0,*6E
1486724431.17,7993,10.69,73856.5,-3.95,-9.11,-9.49,0,*66
1486724432.36,7994,10.69,73858.3,-3.95,-9.27,-9.75,0,*6B
1486724433.59,7995,10.69,73862.8,-3.95,-8.93,-9.49,0,*6B
1486724434.79,7996,10.69,73862.0,-3.95,-8.93,-9.67,0,*64
1486724436.05,7997,10.69,73860.3,-3.93,-9.53,-10.35,0,*51
1486724437.3,7998,10.69,73860.5,-3.93,-9.15,-10.09,0,*53
1486724438.56,7999,10.69,73858.8,-3.93,-9.37,-10.31,0,*59
1486724439.77,8000,10.69,73862.8,-3.91,-8.97,-10.15,0,*50
1486724441.0,8001,10.69,73860.3,-3.91,-9.37,-10.53,0,*58
1486724442.28,8002,10.69,73860.5,-3.93,-9.41,-10.63,0,*5B
1486724443.53,8003,10.69,73864.8,-3.93,-9.37,-10.45,0,*5F
1486724444.78,8004,10.69,73866.8,-3.91,-9.49,-10.79,0,*5C
1486724446.06,8005,10.69,73864.8,-3.93,-9.61,-10.79,0,*55
1486724447.3,8006,10.69,73866.0,-3.93,-9.67,-10.71,0,*58
1486724448.53,8007,10.69,73870.8,-3.95,-9.41,-10.09,0,*54
1486724449.79,8008,10.69,73866.8,-3.97,-9.45,-10.23,0,*55
1486724451.02,8009,10.69,73864.0,-3.97,-9.27,-9.79,0,*67
1486724452.28,8010,10.69,73862.8,-3.97,-9.15,-9.71,0,*66
1486724453.5,8011,10.69,73860.3,-3.95,-9.61,-10.05,0,*5D
1486724454.75,8012,10.69,73860.8,-3.97,-9.53,-9.79,0,*6E
1486724455.97,8013,10.69,73864.5,-3.95,-9.27,-9.49,0,*6D
1486724457.22,8014,10.69,73862.5,-3.97,-9.57,-9.79,0,*6C
1486724458.45,8015,10.69,73862.0,-3.97,-8.85,-8.85,0,*61
1486724459.7,8016,10.69,73864.0,-3.97,-9.41,-9.27,0,*62
1486724460.91,8017,10.69,73860.0,-3.99,-9.05,-9.01,0,*69
1486724462.11,8018,10.69,73862.5,-3.99,-9.05,-8.97,0,*68
1486724463.34,8019,10.69,73864.3,-3.99,-9.15,-8.97,0,*68
1486724464.61,8020,10.69,73864.0,-4.01,-9.57,-9.53,0,*6B
1486724465.83,8021,10.69,73860.8,-3.99,-9.83,-9.67,0,*62
1486724467.05,8022,10.69,73860.3,-3.99,-9.83,-9.67,0,*61
1486724468.29,8023,10.69,73860.3,-4.01,-9.89,-9.61,0,*6A
1486724469.54,8024,10.69,73858.0,-4.01,-10.01,-9.61,0,*55
1486724470.74,8025,10.69,73856.5,-4.03,-10.19,-9.89,0,*59
1486724471.97,8026,10.69,73862.0,-4.03,-9.71,-9.49,0,*60
1486724473.21,8027,10.69,73862.8,-4.05,-9.53,-9.15,0,*6E
1486724474.43,8028,10.69,73862.5,-4.05,-9.67,-9.37,0,*66
1486724475.63,8029,10.69,73862.8,-4.05,-10.05,-9.79,0,*51
1486724476.87,8030,10.69,73860.0,-4.09,-10.79,-10.49,0,*65
1486724478.1,8031,10.69,73860.8,-4.11,-10.15,-9.93,0,*58
1486724479.34,8032,10.69,73860.5,-4.11,-10.09,-9.83,0,*57
1486724480.59,8033,10.69,73866.5,-4.11,-9.67,-9.53,0,*6B
1486724481.83,8034,10.69,73864.0,-4.11,-9.83,-9.67,0,*61
1486724483.07,8035,10.69,73862.0,-4.13,-9.57,-9.41,0,*6F
1486724484.32,8036,10.69,73866.8,-4.15,-9.75,-9.57,0,*6D
1486724485.54,8037,10.69,73860.5,-4.13,-9.19,-9.15,0,*66
1486724486.79,8038,10.69,73860.3,-4.15,-9.71,-9.57,0,*67
1486724488.04,8039,10.69,73866.8,-4.15,-9.75,-9.61,0,*67
1486724489.3,8040,10.69,73864.0,-4.15,-9.15,-8.93,0,*63
1486724490.52,8041,10.69,73864.3,-4.17,-8.81,-8.63,0,*63
1486724491.73,8042,10.69,73864.8,-4.17,-9.01,-8.89,0,*6D
1486724492.97,8043,10.69,73866.8,-4.15,-9.49,-9.31,0,*60
1486724494.19,8044,10.69,73862.8,-4.15,-9.23,-9.05,0,*6C
1486724495.42,8045,10.69,73860.5,-4.15,-9.01,-8.75,0,*6B
1486724496.65,8046,10.69,73860.0,-4.17,-8.89,-8.51,0,*6D
1486724497.88,8047,10.69,73860.8,-4.17,-8.75,-8.51,0,*6F
1486724499.1,8048,10.69,73862.3,-4.17,-8.75,-8.51,0,*60
1486724500.35,8049,10.69,73862.5,-4.15,-8.75,-8.51,0,*63
1486724501.59,8050,10.69,73862.3,-4.15,-9.05,-8.81,0,*60
1486724502.84,8051,10.69,73856.5,-4.15,-9.19,-8.81,0,*6C
1486724504.06,8052,10.69,73862.3,-4.15,-9.31,-8.93,0,*66
1486724505.29,8053,10.69,73860.3,-4.19,-9.19,-8.71,0,*6D
1486724506.49,8054,10.69,73862.8,-4.17,-8.75,-8.37,0,*6D
1486724507.68,8055,10.69,73860.8,-4.17,-8.67,-8.33,0,*6B
1486724508.88,8056,10.69,73860.5,-4.17,-8.55,-8.25,0,*6E
1486724510.08,8057,10.69,73864.0,-4.17,-8.67,-8.33,0,*69
1486724511.28,8058,10.69,73860.0,-4.17,-8.67,-8.25,0,*61
1486724512.53,8059,10.69,73858.5,-4.15,-8.89,-8.51,0,*61
1486724513.75,8060,10.69,73856.0,-4.15,-8.67,-8.33,0,*6F
1486724514.97,8061,10.69,73858.3,-4.15,-8.63,-8.33,0,*6A
1486724516.17,8062,10.69,73860.0,-4.13,-9.19,-8.89,0,*62
1486724517.39,8063,10.69,73862.3,-4.15,-9.05,-8.55,0,*69
1486724518.59,8064,10.69,73864.5,-4.17,-8.67,-8.25,0,*6E
1486724519.87,8065,10.69,73864.3,-4.15,-8.51,-8.07,0,*68
1486724521.07,8066,10.69,73866.3,-4.13,-8.45,-8.17,0,*69
1486724522.27,8067,10.69,73856.8,-4.13,-8.97,-8.59,0,*6D
1486724523.49,8068,10.69,73858.0,-4.15,-9.05,-8.75,0,*60
1486724524.75,8069,10.69,73866.0,-4.15,-8.41,-8.07,0,*65
1486724525.97,8070,10.69,73866.0,-4.15,-8.67,-8.33,0,*6E
1486724527.25,8071,10.69,73866.0,-4.15,-8.51,-8.07,0,*6D
1486724528.45,8072,10.69,73860.0,-4.13,-8.21,-7.83,0,*6C
1486724529.66,8073,10.69,73860.0,-4.13,-8.63,-8.29,0,*64
1486724530.91,8074,10.69,73850.3,-4.13,-8.51,-8.03,0,*6A
1486724532.1,8075,10.69,73852.0,-4.13,-8.59,-8.17,0,*66
1486724533.31,8076,10.69,73852.3,-4.13,-8.85,-8.37,0,*66
1486724534.55,8077,10.69,73852.5,-4.11,-8.89,-8.37,0,*69
1486724535.77,8078,10.69,73848.5,-4.11,-8.85,-8.21,0,*6D
1486724537.03,8079,10.69,73856.3,-4.11,-8.75,-8.07,0,*67
1486724538.24,8080,10.69,73858.3,-4.11,-8.17,-7.53,0,*6B
1486724539.46,8081,10.69,73856.3,-4.09,-8.29,-7.57,0,*6A
1486724540.66,8082,10.69,73858.5,-4.05,-8.25,-7.53,0,*6D
1486724541.88,8083,10.69,73858.0,-4.03,-8.41,-7.73,0,*6A
1486724543.08,8084,10.69,73858.5,-4.03,-9.01,-8.29,0,*68
1486724544.28,8085,10.69,73858.0,-4.03,-9.23,-8.37,0,*66
1486724545.51,8086,10.69,73854.8,-4.03,-8.89,-7.99,0,*6F
1486724546.74,8087,10.69,73856.3,-4.03,-9.01,-8.11,0,*60
1486724547.96,8088,10.69,73852.3,-4.01,-9.31,-8.41,0,*6B
1486724549.19,8089,10.69,73854.8,-3.99,-9.15,-8.21,0,*6C
1486724550.41,8090,10.69,73856.8,-4.01,-9.31,-8.29,0,*6C
1486724551.7,8091,10.69,73862.3,-4.01,-9.11,-8.07,0,*63
1486724552.92,8092,10.69,73856.5,-3.99,-8.75,-7.77,0,*6D
1486724554.16,8093,10.69,73852.8,-3.99,-9.05,-8.07,0,*62
1486724555.39,8094,10.69,73848.5,-3.97,-9.31,-8.21,0,*68
1486724556.61,8095,10.69,73846.0,-3.95,-8.93,-7.65,0,*6D
1486724557.83,8096,10.69,73836.8,-3.95,-9.31,-8.03,0,*68
1486724559.05,8097,10.69,73838.8,-3.95,-9.49,-8.29,0,*6E
1486724560.25,8098,10.69,73836.8,-3.93,-9.97,-8.67,0,*6E
1486724561.47,8099,10.69,73840.8,-3.93,-10.09,-8.45,0,*50
1486724562.7,8100,10.69,73844.5,-3.93,-10.35,-8.85,0,*52
1486724563.89,8101,10.69,73844.8,-3.91,-10.89,-9.19,0,*52
1486724565.15,8102,10.69,73854.3,-3.93,-11.41,-9.61,0,*59
1486724566.39,8103,10.69,73850.8,-3.91,-11.85,-9.83,0,*5E
1486724567.65,8104,10.69,73848.5,-3.93,-12.71,-10.45,0,*61
1486724568.91,8105,10.69,73850.3,-3.91,-12.79,-10.41,0,*6E
1486724570.19,8106,10.69,73856.3,-3.93,-13.29,-10.79,0,*60
1486724571.43,8107,10.69,73852.5,-3.93,-13.69,-11.19,0,*62
1486724572.66,8108,10.69,73858.3,-3.93,-14.89,-12.29,0,*64
1486724573.94,8109,10.69,73858.0,-3.93,-15.43,-12.61,0,*6E
1486724575.2,8110,10.69,73852.8,-3.97,-15.89,-13.07,0,*65
1486724576.4,8111,10.69,73860.0,-3.95,-16.37,-13.69,0,*68
1486724577.66,8112,10.69,73856.8,-3.97,-16.41,-13.87,0,*68
1486724578.9,8113,10.69,73856.8,-3.95,-17.55,-15.29,0,*6D
1486724580.19,8114,10.69,73858.0,-3.97,-17.55,-15.39,0,*69
1486724581.42,8115,10.69,73852.5,-3.97,-17.73,-16.03,0,*66
1486724582.66,8116,10.69,73858.8,-3.99,-18.45,-17.11,0,*63
1486724583.89,8117,10.69,73852.0,-4.01,-18.41,-17.49,0,*6D
1486724585.13,8118,10.69,73856.3,-4.03,-18.07,-17.59,0,*63
1486724586.38,8119,10.69,73860.3,-4.03,-17.79,-17.63,0,*6D
1486724587.59,8120,10.69,73856.3,-4.05,-16.59,-16.89,0,*67
1486724588.83,8121,10.69,73854.5,-4.05,-16.45,-17.21,0,*68
1486724590.06,8122,10.69,73858.3,-4.11,-15.95,-16.97,0,*6C
1486724591.3,8123,10.69,73854.5,-4.13,-15.53,-16.69,0,*64
1486724592.53,8124,10.69,73854.5,-4.13,-14.65,-16.09,0,*61
1486724593.8,8125,10.69,73860.5,-4.15,-13.51,-14.93,0,*67
1486724595.07,8126,10.69,73856.0,-4.13,-13.01,-14.47,0,*6E
1486724596.31,8127,10.69,73854.5,-4.15,-12.21,-13.51,0,*6A
1486724597.58,8128,10.69,73858.3,-4.15,-11.29,-12.47,0,*68
1486724598.84,8129,10.69,73858.0,-4.15,-11.15,-12.35,0,*63
1486724600.1,8130,10.69,73858.0,-4.15,-11.23,-12.11,0,*68
1486724601.31,8131,10.69,73856.8,-4.17,-10.45,-11.23,0,*68
1486724602.53,8132,10.69,73854.8,-4.17,-10.15,-10.57,0,*6C
1486724603.74,8133,10.69,73854.5,-4.17,-9.71,-10.01,0,*54
1486724604.99,8134,10.69,73852.3,-4.17,-9.45,-9.61,0,*6A
1486724606.24,8135,10.69,73852.0,-4.17,-9.45,-9.61,0,*6B
1486724607.47,8136,10.69,73850.0,-4.17,-9.31,-9.49,0,*61
1486724608.67,8137,10.69,73848.5,-4.17,-9.19,-9.23,0,*66
1486724609.9,8138,10.69,73838.3,-4.17,-9.31,-9.37,0,*66
1486724611.15,8139,10.69,73850.0,-4.17,-9.49,-9.57,0,*6E
1486724612.37,8140,10.69,73850.8,-4.17,-9.37,-9.31,0,*69
1486724613.63,8141,10.69,73852.5,-4.17,-9.37,-9.37,0,*6E
1486724614.88,8142,10.69,73858.5,-4.17,-9.15,-9.15,0,*6D
1486724616.16,8143,10.69,73860.3,-4.19,-9.49,-9.49,0,*62
1486724617.4,8144,10.69,73858.0,-4.19,-9.61,-9.67,0,*63
1486724618.65,8145,10.69,73860.3,-4.21,-9.83,-9.83,0,*6F
1486724619.87,8146,10.69,73858.3,-4.21,-9.67,-9.57,0,*6F
1486724621.09,8147,10.69,73856.3,-4.23,-9.01,-8.97,0,*61
1486724622.29,8148,10.69,73858.3,-4.21,-8.97,-8.97,0,*62
1486724623.5,8149,10.69,73866.5,-4.21,-9.31,-9.27,0,*64
1486724624.75,8150,10.69,73860.5,-4.23,-9.11,-8.97,0,*66
1486724625.95,8151,10.69,73864.0,-4.21,-9.23,-9.23,0,*6A
1486724627.23,8152,10.69,73860.8,-4.23,-9.15,-9.11,0,*6F
1486724628.45,8153,10.69,73858.3,-4.23,-9.31,-9.27,0,*6D
1486724629.71,8154,10.69,73852.3,-4.23,-9.11,-8.89,0,*6D
1486724630.93,8155,10.69,73854.8,-4.23,-8.89,-8.75,0,*6F
1486724632.17,8156,10.69,73848.5,-4.23,-8.51,-8.41,0,*6E
1486724633.42,8157,10.69,73854.0,-4.23,-8.63,-8.51,0,*6F
1486724634.63,8158,10.69,73854.8,-4.25,-9.01,-9.01,0,*67
1486724635.9,8159,10.69,73858.3,-4.23,-9.45,-9.41,0,*64
1486724637.1,8160,10.69,73858.5,-4.25,-8.89,-8.67,0,*6C
1486724638.32,8161,10.69,73856.8,-4.25,-8.89,-8.81,0,*65
1486724639.55,8162,10.69,73856.5,-4.23,-8.97,-8.85,0,*6B
1486724640.76,8163,10.69,73854.0,-4.25,-8.81,-8.75,0,*64
1486724641.99,8164,10.69,73850.8,-4.27,-8.45,-8.45,0,*6A
1486724643.19,8165,10.69,73852.0,-4.25,-8.93,-8.93,0,*69
1486724644.4,8166,10.69,73852.3,-4.25,-8.93,-8.89,0,*61
1486724645.6,8167,10.69,73852.8,-4.25,-8.93,-8.93,0,*6B
1486724646.79,8168,10.69,73856.0,-4.25,-8.67,-8.67,0,*64
1486724647.98,8169,10.69,73856.3,-4.25,-8.75,-8.75,0,*65
1486724649.21,8170,10.69,73854.8,-4.27,-8.37,-8.37,0,*6F
1486724650.46,8171,10.69,73856.0,-4.27,-8.51,-8.45,0,*6B
1486724651.66,8172,10.69,73858.3,-4.25,-8.25,-8.21,0,*6B
1486724652.85,8173,10.69,73858.5,-4.25,-8.33,-8.25,0,*69
1486724654.1,8174,10.69,73852.0,-4.25,-8.07,-7.95,0,*6D
1486724655.3,8175,10.69,73854.3,-4.21,-8.21,-8.21,0,*6C
1486724656.56,8176,10.69,73854.3,-4.23,-8.03,-7.95,0,*6D
1486724657.78,8177,10.69,73852.5,-4.23,-8.33,-8.29,0,*67
1486724659.02,8178,10.69,73854.8,-4.23,-8.59,-8.51,0,*6B
1486724660.27,8179,10.69,73848.0,-4.23,-8.71,-8.51,0,*60
1486724661.48,8180,10.69,73852.8,-4.21,-8.97,-8.89,0,*69
1486724662.71,8181,10.69,73852.8,-4.23,-9.01,-9.01,0,*65
1486724663.93,8182,10.69,73854.0,-4.23,-8.85,-8.71,0,*6D
1486724665.18,8183,10.69,73858.3,-4.23,-8.63,-8.51,0,*66
1486724666.4,8184,10.69,73858.0,-4.23,-8.75,-8.59,0,*6E
1486724667.64,8185,10.69,73856.3,-4.23,-8.59,-8.51,0,*69
1486724668.86,8186,10.69,73848.5,-4.23,-8.89,-8.75,0,*61
1486724670.08,8187,10.69,73848.5,-4.23,-8.45,-8.33,0,*62
1486724671.33,8188,10.69,73852.5,-4.23,-8.63,-8.51,0,*6D
1486724672.55,8189,10.69,73858.0,-4.23,-8.29,-8.21,0,*65
1486724673.76,8190,10.69,73854.0,-4.23,-8.29,-8.29,0,*65
1486724674.99,8191,10.69,73854.8,-4.21,-8.21,-8.07,0,*62
1486724676.26,8192,10.69,73858.5,-4.23,-8.03,-7.95,0,*67
1486724677.5,8193,10.69,73854.5,-4.21,-7.77,-7.69,0,*6B
1486724678.7,8194,10.69,73850.8,-4.21,-8.75,-8.63,0,*64
1486724679.95,8195,10.69,73852.5,-4.23,-8.51,-8.45,0,*65
1486724681.15,8196,10.69,73850.0,-4.21,-8.41,-8.29,0,*6F
1486724682.37,8197,10.69,73854.0,-4.21,-8.17,-8.03,0,*65
1486724683.59,8198,10.69,73854.3,-4.21,-8.21,-8.03,0,*6F
1486724684.82,8199,10.69,73858.8,-4.21,-8.17,-8.03,0,*6B
1486724686.04,8200,10.69,73856.8,-4.21,-8.51,-8.29,0,*62
1486724687.27,8201,10.69,73856.3,-4.21,-8.51,-8.45,0,*69
1486724688.46,8202,10.69,73862.8,-4.21,-8.33,-8.29,0,*64
1486724689.74,8203,10.69,73858.0,-4.23,-8.07,-7.95,0,*68
1486724690.96,8204,10.69,73852.0,-4.21,-8.51,-8.45,0,*6C
1486724692.16,8205,10.69,73848.5,-4.21,-8.41,-8.29,0,*66
1486724693.39,8206,10.69,73848.8,-4.21,-8.63,-8.51,0,*6A
1486724694.67,8207,10.69,73854.5,-4.19,-8.11,-7.91,0,*66
1486724695.91,8208,10.69,73854.5,-4.19,-8.03,-7.87,0,*6D
1486724697.16,8209,10.69,73858.8,-4.19,-7.87,-7.77,0,*60
1486724698.38,8210,10.69,73856.0,-4.19,-8.29,-8.17,0,*6A
1486724699.66,8211,10.69,73858.8,-4.19,-7.91,-7.65,0,*6D
1486724700.91,8212,10.69,73856.8,-4.19,-8.11,-7.87,0,*65
1486724702.17,8213,10.69,73848.5,-4.17,-8.07,-8.07,0,*6A
1486724703.4,8214,10.69,73848.5,-4.17,-8.25,-8.11,0,*6A
1486724704.62,8215,10.69,73850.3,-4.17,-7.95,-7.83,0,*6B
1486724705.85,8216,10.69,73844.5,-4.17,-7.83,-7.61,0,*63
1486724707.08,8217,10.69,73846.8,-4.17,-7.83,-7.69,0,*6A
1486724708.33,8218,10.69,73844.5,-4.15,-8.25,-8.11,0,*64
1486724709.52,8219,10.69,73844.0,-4.13,-8.29,-8.17,0,*69
1486724710.78,8220,10.69,73844.3,-4.15,-7.87,-7.61,0,*60
1486724712.06,8221,10.69,73840.3,-4.15,-7.61,-7.43,0,*69
1486724713.29,8222,10.69,73842.0,-4.13,-7.83,-7.57,0,*65
1486724714.53,8223,10.69,73842.5,-4.13,-7.91,-7.77,0,*65
1486724715.75,8224,10.69,73844.8,-4.11,-8.29,-8.17,0,*65
1486724716.97,8225,10.69,73844.0,-4.09,-8.29,-8.07,0,*6C
1486724718.2,8226,10.69,73842.8,-4.09,-8.21,-8.07,0,*67
1486724719.42,8227,10.69,73848.0,-4.11,-8.37,-8.21,0,*6C
1486724720.64,8228,10.69,73852.0,-4.11,-8.75,-8.59,0,*6A
1486724721.85,8229,10.69,73848.5,-4.11,-8.59,-8.33,0,*69
1486724723.07,8230,10.69,73848.5,-4.11,-8.17,-7.83,0,*6F
1486724724.32,8231,10.69,73848.0,-4.11,-7.83,-7.57,0,*65
1486724725.59,8232,10.69,73852.5,-4.11,-7.69,-7.27,0,*65
1486724726.79,8233,10.69,73858.0,-4.09,-7.15,-6.73,0,*66
1486724728.0,8234,10.69,73854.5,-4.09,-7.39,-7.15,0,*6E
1486724729.23,8235,10.69,73852.0,-4.03,-7.57,-7.15,0,*6D
1486724730.48,8236,10.69,73850.5,-4.03,-8.07,-7.73,0,*64
1486724731.73,8237,10.69,73852.0,-4.03,-7.99,-7.73,0,*6D
1486724732.92,8238,10.69,73856.5,-4.03,-7.49,-7.15,0,*6F
1486724734.19,8239,10.69,73854.8,-4.01,-7.61,-7.27,0,*67
1486724735.42,8240,10.69,73850.8,-3.99,-8.25,-8.03,0,*69
1486724736.67,8241,10.69,73854.0,-3.99,-8.07,-7.77,0,*64
1486724737.87,8242,10.69,73850.5,-3.99,-8.45,-8.17,0,*68
1486724739.11,8243,10.69,73860.3,-3.99,-8.03,-7.69,0,*6D
1486724740.34,8244,10.69,73862.5,-3.99,-7.57,-7.15,0,*6F
1486724741.59,8245,10.69,73860.8,-3.97,-7.65,-7.15,0,*61
1486724742.84,8246,10.69,73860.3,-3.95,-7.91,-7.43,0,*68
1486724744.06,8247,10.69,73852.0,-3.95,-8.17,-7.73,0,*6B
1486724745.28,8248,10.69,73852.5,-3.95,-8.21,-7.91,0,*6D
1486724746.55,8249,10.69,73856.3,-3.93,-8.11,-7.77,0,*61
1486724747.77,8250,10.69,73858.3,-3.93,-8.97,-8.67,0,*69
1486724748.99,8251,10.69,73858.0,-3.93,-8.85,-8.59,0,*66
1486724750.18,8252,10.69,73850.3,-3.91,-8.63,-8.17,0,*65
1486724751.37,8253,10.69,73854.3,-3.91,-8.67,-8.17,0,*60
1486724752.6,8254,10.69,73852.3,-3.93,-8.93,-8.45,0,*69
1486724753.82,8255,10.75,73858.8,-3.91,-8.93,-8.51,0,*6F
1486724755.0,8256,10.69,73858.0,-3.91,-9.31,-8.67,0,*60
1486724756.22,8257,10.69,73860.5,-3.91,-9.23,-8.51,0,*67
1486724757.44,8258,10.69,73862.5,-3.91,-8.51,-7.87,0,*68
1486724758.64,8259,10.69,73860.3,-3.91,-8.37,-7.83,0,*6D
1486724759.9,8260,10.69,73862.8,-3.89,-8.75,-8.07,0,*6B
1486724761.15,8261,10.69,73858.8,-3.89,-8.89,-7.99,0,*61
1486724762.35,8262,10.69,73854.0,-3.87,-9.05,-8.21,0,*65
1486724763.56,8263,10.69,73858.5,-3.87,-8.59,-7.65,0,*63
1486724764.76,8264,10.69,73856.0,-3.83,-8.71,-7.87,0,*66
1486724766.04,8265,10.69,73856.0,-3.81,-9.11,-8.03,0,*61
1486724767.28,8266,10.69,73858.3,-3.81,-9.49,-8.21,0,*6F
1486724768.56,8267,10.69,73856.0,-3.81,-9.15,-7.91,0,*63
1486724769.77,8268,10.69,73858.3,-3.81,-8.97,-7.53,0,*69
1486724771.02,8269,10.69,73854.0,-3.77,-9.19,-7.61,0,*67
1486724772.26,8270,10.69,73858.5,-3.77,-9.45,-7.83,0,*6A
1486724773.47,8271,10.69,73856.8,-3.75,-9.83,-8.21,0,*64
1486724774.69,8272,10.69,73858.5,-3.75,-9.75,-7.91,0,*6A
1486724775.91,8273,10.69,73856.8,-3.71,-10.23,-8.41,0,*56
1486724777.12,8274,10.69,73858.3,-3.71,-10.45,-8.59,0,*58
1486724778.37,8275,10.69,73858.8,-3.71,-11.01,-9.11,0,*55
1486724779.6,8276,10.69,73860.8,-3.69,-11.07,-9.23,0,*58
1486724780.83,8277,10.69,73858.0,-3.69,-11.41,-9.61,0,*5D
1486724782.08,8278,10.69,73864.0,-3.71,-11.63,-10.09,0,*6D
1486724783.32,8279,10.69,73864.0,-3.69,-11.59,-10.35,0,*63
1486724784.54,8280,10.69,73862.0,-3.69,-11.41,-10.35,0,*6C
1486724785.76,8281,10.69,73860.0,-3.71,-10.53,-9.71,0,*5E
1486724786.97,8282,10.69,73860.0,-3.69,-11.15,-10.53,0,*6F
1486724788.21,8283,10.69,73856.3,-3.69,-11.01,-10.63,0,*68
1486724789.49,8284,10.69,73860.5,-3.71,-10.67,-10.63,0,*67
1486724790.74,8285,10.69,73862.8,-3.71,-10.53,-10.63,0,*61
1486724791.97,8286,10.69,73858.5,-3.69,-10.49,-10.79,0,*6B
1486724793.25,8287,10.75,73860.5,-3.71,-10.79,-11.29,0,*64
1486724794.46,8288,10.69,73856.0,-3.69,-9.71,-10.23,0,*59
1486724795.66,8289,10.69,73858.8,-3.69,-10.31,-10.89,0,*64
1486724796.88,8290,10.69,73860.8,-3.71,-9.93,-10.53,0,*52
1486724798.13,8291,10.69,73858.5,-3.71,-10.09,-10.75,0,*6C
1486724799.34,8292,10.69,73860.5,-3.69,-9.79,-10.31,0,*59
1486724800.56,8293,10.75,73860.8,-3.69,-10.05,-10.63,0,*6C
1486724801.76,8294,10.69,73860.5,-3.69,-9.67,-10.09,0,*5B
1486724802.96,8295,10.69,73856.0,-3.69,-9.79,-10.23,0,*5D
1486724804.17,8296,10.69,73854.3,-3.69,-9.71,-10.05,0,*52
1486724805.37,8297,10.69,73854.0,-3.69,-9.93,-10.19,0,*52
1486724806.58,8298,10.69,73856.5,-3.69,-10.05,-10.19,0,*6A
1486724807.77,8299,10.69,73862.0,-3.69,-9.97,-9.93,0,*62
1486724808.97,8300,10.69,73862.3,-3.69,-9.71,-9.79,0,*6F
1486724810.18,8301,10.69,73862.0,-3.69,-10.49,-10.31,0,*69
1486724811.41,8302,10.69,73858.0,-3.69,-10.79,-10.45,0,*6A
1486724812.65,8303,10.69,73854.5,-3.69,-10.63,-10.09,0,*68
1486724813.88,8304,10.69,73848.0,-3.69,-10.67,-10.05,0,*67
1486724815.09,8305,10.69,73852.8,-3.69,-10.93,-10.09,0,*61
1486724816.35,8306,10.69,73854.8,-3.71,-11.29,-10.53,0,*64
1486724817.61,8307,10.69,73856.0,-3.71,-11.41,-10.67,0,*6C
1486724818.84,8308,10.69,73856.5,-3.69,-11.97,-11.19,0,*69
1486724820.07,8309,10.69,73856.3,-3.69,-11.85,-11.01,0,*62
1486724821.35,8310,10.69,73854.8,-3.71,-12.35,-11.73,0,*6E
1486724822.6,8311,10.69,73844.8,-3.71,-12.35,-11.45,0,*6A
1486724823.86,8312,10.69,73848.0,-3.71,-12.47,-11.63,0,*68
1486724825.09,8313,10.69,73850.8,-3.71,-12.25,-11.41,0,*6D
1486724826.37,8314,10.75,73860.0,-3.71,-12.15,-11.33,0,*6C
1486724827.57,8315,10.69,73858.0,-3.69,-12.03,-11.19,0,*6B
1486724828.82,8316,10.69,73858.3,-3.71,-12.47,-11.59,0,*65
1486724830.07,8317,10.69,73860.3,-3.73,-11.81,-10.85,0,*6F
1486724831.31,8318,10.69,73850.3,-3.73,-12.03,-10.97,0,*6A
1486724832.53,8319,10.69,73848.3,-3.71,-12.03,-10.93,0,*6D
1486724833.79,8320,10.69,73848.3,-3.71,-12.25,-11.07,0,*6F
1486724835.0,8321,10.69,73850.8,-3.69,-12.29,-11.01,0,*6D
1486724836.23,8322,10.69,73850.8,-3.69,-12.97,-11.59,0,*66
1486724837.52,8323,10.69,73854.3,-3.71,-13.01,-11.63,0,*69
1486724838.76,8324,10.69,73852.5,-3.71,-12.89,-11.33,0,*6A
1486724839.99,8325,10.69,73854.8,-3.71,-12.89,-11.19,0,*63
1486724841.24,8326,10.69,73852.5,-3.75,-12.79,-11.07,0,*64
1486724842.5,8327,10.69,73852.3,-3.75,-12.61,-10.79,0,*64
1486724843.75,8328,10.69,73850.8,-3.73,-12.75,-10.85,0,*6B
1486724844.97,8329,10.69,73852.5,-3.75,-13.15,-11.33,0,*67
1486724846.2,8330,10.69,73854.3,-3.75,-13.19,-11.51,0,*67
1486724847.42,8331,10.69,73854.3,-3.75,-13.47,-11.77,0,*69
1486724848.65,8332,10.69,73852.0,-3.75,-13.47,-11.93,0,*60
1486724849.88,8333,10.69,73848.8,-3.77,-13.43,-12.21,0,*6D
1486724851.11,8334,10.69,73848.5,-3.79,-13.19,-12.11,0,*68
1486724852.34,8335,10.69,73850.3,-3.79,-13.51,-12.65,0,*66
1486724853.58,8336,10.75,73850.8,-3.79,-13.79,-13.19,0,*65
1486724854.81,8337,10.69,73844.3,-3.79,-13.19,-12.83,0,*60
1486724856.06,8338,10.69,73844.0,-3.79,-12.71,-12.79,0,*65
1486724857.29,8339,10.69,73842.0,-3.79,-12.25,-12.57,0,*69
1486724858.55,8340,10.69,73846.3,-3.81,-11.89,-12.43,0,*60
1486724859.81,8341,10.69,73842.5,-3.81,-11.41,-12.15,0,*66
1486724861.04,8342,10.69,73842.0,-3.81,-11.45,-12.39,0,*6F
1486724862.27,8343,10.69,73840.5,-3.83,-11.15,-12.15,0,*67
1486724863.55,8344,10.69,73840.3,-3.81,-11.07,-11.89,0,*67
1486724864.81,8345,10.69,73844.5,-3.83,-10.79,-11.59,0,*61
1486724866.01,8346,10.75,73850.8,-3.83,-10.35,-11.15,0,*62
1486724867.27,8347,10.69,73854.8,-3.83,-10.63,-11.29,0,*6F
1486724868.47,8348,10.69,73852.8,-3.83,-10.23,-10.57,0,*6C
1486724869.67,8349,10.69,73852.8,-3.83,-10.05,-10.31,0,*69
1486724870.89,8350,10.69,73856.0,-3.83,-9.61,-9.79,0,*6F
1486724872.08,8351,10.69,73858.8,-3.87,-9.71,-9.97,0,*6B
1486724873.35,8352,10.69,73860.3,-3.81,-9.53,-9.61,0,*67
1486724874.61,8353,10.75,73862.5,-3.81,-9.61,-9.49,0,*6D
1486724875.85,8354,10.69,73856.3,-3.83,-9.61,-9.61,0,*62
1486724877.04,8355,10.75,73856.5,-3.83,-9.97,-9.79,0,*63
1486724878.28,8356,10.69,73852.5,-3.83,-9.53,-9.37,0,*62
1486724879.47,8357,10.69,73854.0,-3.83,-8.89,-8.67,0,*61
1486724880.72,8358,10.69,73850.5,-3.83,-9.37,-9.15,0,*6E
1486724881.94,8359,10.69,73846.5,-3.83,-9.79,-9.53,0,*67
1486724883.13,8360,10.69,73842.3,-3.83,-9.67,-9.27,0,*61
1486724884.32,8361,10.75,73840.8,-3.83,-9.97,-9.67,0,*6B
1486724885.54,8362,10.69,73842.3,-3.83,-10.19,-9.83,0,*5C
1486724886.75,8363,10.69,73838.5,-3.87,-10.53,-10.19,0,*6C
1486724888.01,8364,10.75,73838.5,-3.89,-10.41,-10.27,0,*6B
1486724889.23,8365,10.69,73836.8,-3.89,-9.89,-9.71,0,*6D
1486724890.47,8366,10.75,73844.5,-3.91,-9.61,-9.37,0,*63
1486724891.71,8367,10.69,73844.3,-3.89,-9.57,-9.23,0,*6B
1486724892.92,8368,10.69,73846.0,-3.91,-9.45,-9.19,0,*67
1486724894.17,8369,10.69,73846.8,-3.93,-9.11,-8.93,0,*66
1486724895.36,8370,10.69,73844.5,-3.91,-9.23,-8.97,0,*69
1486724896.58,8371,10.69,73846.8,-3.91,-9.05,-8.81,0,*6B
1486724897.77,8372,10.69,73846.0,-3.91,-9.05,-8.75,0,*63
1486724898.96,8373,10.75,73846.8,-3.91,-8.75,-8.55,0,*66
1486724900.18,8374,10.75,73844.3,-3.89,-9.05,-8.75,0,*6C
1486724901.42,8375,10.75,73842.8,-3.89,-8.81,-8.55,0,*62
1486724902.61,8376,10.69,73838.8,-3.87,-8.93,-8.75,0,*6E
1486724903.85,8377,10.69,73846.0,-3.89,-9.49,-9.05,0,*61
1486724905.05,8378,10.75,73850.3,-3.87,-9.19,-8.93,0,*6B
1486724906.3,8379,10.69,73850.3,-3.89,-9.71,-9.45,0,*60
1486724907.55,8380,10.69,73850.0,-3.89,-9.75,-9.45,0,*62
1486724908.82,8381,10.75,73854.5,-3.89,-9.83,-9.45,0,*6A
1486724910.06,8382,10.69,73850.0,-3.89,-9.93,-9.57,0,*6B
1486724911.27,8383,10.69,73848.3,-3.91,-9.49,-9.23,0,*67
1486724912.51,8384,10.75,73850.3,-3.93,-9.89,-9.49,0,*62